Location: Bocianicha
(51.5066°N, 19.2563°E)
Time: 13:24:28
(UTC+00:00)

Cosmos 2151 Rocket - Pass Details

Date: 15 June 2025
Orbit: 613 x 635 km, 82.5° (Epoch: 18 July)

Event Time Altitude Azimuth Distance (km) Brightness Sun altitude
Rises 00:14:57 0° 345° (NNW) 2,910 8.0 -12.5°
Reaches altitude 10° 00:17:13 10° 341° (NNW) 2,002 6.9 -12.4°
Maximum altitude 00:21:31 51° 265° (W) 786 3.9 -12.1°
Enters shadow 00:24:42 17° 195° (SSW) 1,576 5.0 -11.9°
